Wind_Speed
41 40 41 42 42 42 43 43 43 43 42 40 39 39 39 40 40 39 38 38 37 37 36 36 37 38 38 39 40 40 41 42 42 44 45 46 46 47 47 45 45 46 48 48
38 38 39 40 41 41 42 42 42 43 43 42 42 42 41 41 40 40 39 39 38 37 37 37 37 38 38 38 39 40 40 41 41 43 44 45 46 47 48 47 46 46 47 47
38 38 39 40 39 40 41 41 41 42 40 41 42 42 42 42 41 41 40 40 39 39 39 38 38 38 38 38 39 39 39 39 40 41 42 43 45 46 46 45 46 45 45 46
36 37 39 38 38 39 40 40 39 39 38 39 40 40 41 42 42 42 41 40 39 39 39 38 38 39 40 39 39 39 39 39 40 42 42 43 43 44 44 44 44 45 45 45
33 35 37 36 36 37 37 37 37 37 37 37 37 37 38 39 39 40 40 40 39 39 39 39 39 39 39 39 39 39 40 40 41 42 43 42 43 43 43 44 45 45 46 46
27 30 33 34 34 34 35 36 35 35 35 36 36 36 35 36 36 37 37 38 38 37 37 37 38 38 39 39 39 39 40 40 41 42 43 43 42 43 44 45 45 46 46 47
23 25 26 28 30 31 32 33 33 34 34 34 34 34 34 34 35 35 35 36 36 35 35 35 36 36 37 37 37 38 40 40 40 42 42 42 43 44 45 46 46 47 47 48
21 22 22 23 25 28 29 29 31 32 32 33 33 33 32 31 32 32 33 34 34 34 33 33 34 34 35 35 36 38 39 40 40 41 41 41 42 44 44 45 46 47 47 48
17 19 20 22 23 24 26 27 29 30 30 31 32 32 31 31 31 31 32 32 33 34 34 33 33 33 33 34 35 36 37 38 38 39 40 40 41 42 43 44 46 46 47 48
15 16 17 19 22 23 24 25 26 27 28 29 29 29 29 29 30 31 31 31 32 33 33 34 33 33 32 33 34 35 35 36 37 38 38 38 39 40 42 44 45 46 46 47
15 15 16 17 19 21 22 22 23 25 26 26 27 27 27 27 28 29 29 29 30 32 33 33 33 33 33 33 33 33 34 34 36 36 36 37 38 39 40 42 43 44 45 46
15 15 15 15 16 18 20 21 23 24 24 24 25 26 26 26 27 28 29 29 30 30 31 33 34 33 33 33 33 33 33 33 33 35 35 35 36 37 38 39 40 42 43 44
14 14 14 14 14 15 17 19 20 21 22 22 24 25 26 26 26 27 28 29 29 29 30 31 32 32 33 33 33 33 33 32 33 35 36 35 35 35 36 36 37 38 39 40
13 13 14 14 14 15 16 17 18 19 19 21 22 24 25 25 26 26 27 28 28 29 29 29 30 30 31 32 33 33 33 33 34 35 35 35 35 35 35 36 36 36 37 37
13 14 14 14 14 15 16 17 18 19 19 20 21 22 23 24 24 25 26 27 28 28 29 29 29 30 31 31 32 33 33 33 33 33 34 34 35 35 35 35 36 36 36 36
12 14 14 14 14 14 15 16 17 18 19 19 20 21 22 23 24 24 24 25 26 27 27 28 29 29 30 31 32 32 32 33 33 33 33 33 34 34 34 34 34 34 35 36
13 14 14 15 15 15 15 15 16 17 17 18 19 20 21 22 23 23 23 24 25 25 26 27 28 29 29 30 31 32 32 32 33 33 33 33 33 33 33 33 34 34 34 36
15 14 15 15 15 16 17 17 17 17 18 18 19 20 20 21 21 22 22 23 24 24 25 26 27 28 28 29 30 31 31 31 32 33 32 32 33 33 33 33 34 34 35 36
15 16 16 17 17 17 18 18 18 19 19 19 20 20 20 21 21 21 22 23 24 24 25 26 26 27 28 28 29 30 31 31 32 32 32 32 32 33 33 34 35 35 35 35
16 17 17 17 18 18 18 19 19 20 20 20 20 21 21 21 21 21 22 23 24 24 25 25 26 27 27 28 29 29 30 30 30 31 31 32 32 33 33 34 35 36 36 36
15 16 16 16 17 18 19 19 19 19 20 20 21 21 21 22 22 22 22 22 23 24 24 25 25 27 27 28 29 29 29 29 30 31 31 32 32 32 33 33 34 35 35 35
15 15 15 15 16 17 18 18 19 20 20 21 21 21 21 21 21 21 21 22 22 23 23 23 24 25 26 26 27 28 28 29 30 31 31 32 32 32 32 32 33 33 33 33
15 15 15 15 15 16 16 17 18 18 19 19 20 20 20 20 20 20 20 21 22 22 22 22 23 23 24 25 25 26 27 28 29 30 30 31 31 31 31 31 31 31 31 31
15 15 15 15 15 15 15 15 15 16 16 17 17 17 18 18 19 20 21 21 21 22 22 22 22 22 23 23 24 24 25 26 26 27 28 28 29 29 29 29 29 30 30 30
16 15 15 15 15 15 15 14 14 14 14 15 15 16 17 18 19 19 20 20 20 20 21 21 21 21 22 22 23 23 24 24 24 25 25 26 26 27 27 27 28 28 29 28
16 16 16 15 15 15 15 15 14 14 15 15 15 16 16 17 17 18 19 19 19 20 20 20 20 20 20 21 21 22 22 23 23 24 24 25 25 26 26 27 27 27 27 26
16 16 16 16 16 15 15 15 15 15 15 15 15 15 15 15 16 17 17 18 18 18 18 18 18 18 18 19 19 20 20 21 22 22 23 23 24 24 24 24 25 25 25 25
Wind_Direction
241 241 242 241 240 241 242 245 247 248 248 249 250 251 251 251 252 251 251 251 251 252 252 251 250 248 248 247 246 247 247 245 244 244 241 240 241 242 242 243 244 244 244 245
241 241 241 241 241 241 242 244 246 247 248 249 251 252 252 251 251 251 251 250 250 251 251 251 252 251 249 248 247 247 246 246 246 245 243 241 241 242 242 243 243 245 244 246
243 242 242 240 240 241 242 244 246 246 246 247 249 250 251 251 252 253 252 251 250 251 251 251 251 250 249 250 250 249 248 248 246 246 244 242 241 242 242 243 243 245 247 248
244 244 246 243 243 243 244 244 244 245 245 246 248 248 249 250 251 252 253 251 250 250 251 251 250 250 251 251 252 251 250 249 248 248 246 244 244 243 243 244 244 246 246 248
243 245 246 244 243 243 245 245 245 247 247 246 247 248 247 248 251 252 252 252 252 252 252 251 251 250 250 250 251 252 251 251 250 249 247 246 246 245 245 245 245 246 248 250
243 243 245 244 245 245 245 246 246 248 248 248 247 247 247 249 250 251 251 251 252 252 252 252 252 250 250 249 250 250 251 251 249 248 248 247 247 246 247 247 247 248 249 251
243 244 245 244 245 246 247 248 247 247 249 249 249 249 247 247 248 249 249 249 250 251 252 252 252 251 250 250 250 250 251 250 248 248 248 248 248 247 249 248 248 249 250 252
247 246 244 243 246 245 247 247 248 248 249 250 250 248 247 247 247 247 247 247 248 249 250 251 252 251 250 250 250 250 250 250 249 249 250 249 249 249 250 249 249 251 252 254
248 248 247 247 250 247 246 249 250 250 251 251 252 251 251 250 248 247 247 247 247 247 247 248 249 250 250 249 249 248 249 250 250 251 251 250 250 250 252 252 252 253 255 256
246 244 248 250 249 249 250 251 250 251 251 252 252 253 252 253 252 250 249 247 246 246 246 246 247 247 248 249 249 249 250 250 249 250 250 251 252 252 253 253 254 255 256 257
250 250 250 251 253 251 249 251 251 251 252 251 251 251 252 252 252 250 249 247 247 246 245 245 245 245 247 249 249 250 250 251 250 250 251 252 253 252 253 253 255 256 258 259
257 254 256 255 258 257 254 253 250 250 251 251 250 249 249 250 251 250 249 248 247 247 246 243 244 245 245 247 248 250 251 251 250 250 251 252 253 254 254 255 256 258 260 261
260 257 256 257 259 259 258 256 251 248 249 250 250 250 250 251 251 250 249 248 247 246 244 243 243 243 244 246 247 248 250 250 251 251 252 253 254 255 256 257 258 260 261 261
261 259 257 258 260 258 256 253 247 245 247 250 251 249 249 251 252 251 249 247 246 246 245 243 243 243 244 245 246 248 250 252 253 253 254 254 255 257 258 258 259 260 262 262
264 264 263 262 263 262 257 254 251 250 250 250 251 250 250 251 252 253 251 248 248 248 246 243 241 242 243 244 246 248 251 253 254 254 256 257 257 258 259 259 260 260 261 263
268 269 266 264 265 265 262 258 256 254 253 252 252 252 251 252 251 253 252 248 248 248 246 243 241 242 243 245 247 249 251 252 254 254 256 257 258 258 258 259 260 263 264 266
274 273 269 265 264 262 260 259 258 256 255 255 254 254 254 254 253 252 251 249 247 246 246 245 245 244 245 246 248 250 252 254 255 255 256 257 258 258 259 260 262 264 266 267
280 278 276 274 271 266 263 263 262 259 257 257 256 257 256 257 256 255 252 250 248 248 248 247 246 246 247 248 249 250 252 254 255 256 256 257 258 259 261 263 265 266 268 270
279 278 276 274 273 271 269 268 266 264 263 262 260 260 258 258 258 257 255 253 252 252 251 249 249 249 250 251 252 253 255 255 256 256 257 258 259 260 262 264 266 268 269 270
280 280 278 276 273 271 271 271 270 267 264 262 260 260 259 259 259 258 256 254 254 254 253 252 252 253 253 254 255 255 256 257 257 257 258 260 261 262 263 265 267 268 270 271
281 279 278 276 274 272 273 273 271 268 265 262 261 259 258 257 257 258 256 255 255 256 254 254 254 255 256 257 257 257 257 258 259 260 260 261 263 264 264 265 267 269 270 271
285 282 279 277 276 275 275 274 272 269 267 265 263 260 258 256 256 256 255 253 254 255 255 255 256 257 257 258 258 257 258 259 260 261 262 262 263 264 265 266 267 268 270 270
287 285 283 281 279 278 277 276 274 270 267 265 262 260 257 256 255 255 255 253 253 255 256 257 258 258 258 258 259 260 260 261 262 262 263 263 264 265 267 267 267 268 270 271
286 286 284 282 280 279 279 278 276 273 268 265 263 261 259 258 258 258 258 256 257 258 258 259 260 259 259 259 259 260 260 261 262 263 263 265 266 267 268 269 270 270 272 273
285 286 286 284 281 280 281 281 280 276 272 269 267 266 265 263 261 260 259 257 258 260 260 261 262 261 260 260 260 260 261 262 263 264 265 267 268 269 269 270 271 272 272 272
284 285 286 285 283 279 279 280 281 279 275 273 270 268 268 266 263 262 260 259 260 260 261 261 262 262 262 261 260 261 262 264 265 266 267 268 269 269 270 271 272 273 272 271
284 284 285 286 284 281 277 277 279 279 276 274 271 269 269 268 266 263 261 261 261 261 260 259 259 260 260 260 261 263 265 266 267 267 268 269 269 270 270 270 271 271 271 270
Height
5507 5510 5514 5518 5524 5528 5531 5534 5538 5543 5547 5552 5555 5557 5560 5562 5564 5567 5569 5572 5574 5576 5578 5580 5582 5584 5587 5590 5593 5596 5598 5601 5605 5608 5612 5616 5620 5624 5628 5632 5636 5640 5644 5648
5496 5500 5502 5506 5512 5516 5520 5524 5527 5531 5535 5540 5542 5545 5548 5550 5553 5555 5558 5560 5562 5564 5567 5569 5571 5573 5576 5579 5582 5584 5587 5590 5593 5597 5600 5604 5608 5612 5616 5620 5624 5628 5632 5636
5485 5489 5491 5496 5501 5505 5508 5512 5516 5519 5525 5527 5530 5533 5536 5539 5541 5543 5546 5549 5551 5553 5556 5558 5561 5563 5565 5567 5570 5573 5576 5579 5582 5585 5589 5593 5597 5601 5605 5608 5612 5616 5620 5624
5475 5479 5481 5489 5492 5494 5497 5500 5504 5507 5511 5515 5518 5521 5524 5526 5529 5531 5534 5536 5539 5542 5544 5547 5549 5552 5554 5557 5559 5562 5565 5568 5571 5574 5578 5582 5585 5589 5593 5597 5601 5604 5608 5611
5466 5468 5471 5478 5481 5483 5486 5489 5493 5496 5500 5503 5506 5508 5512 5515 5517 5520 5522 5525 5527 5530 5533 5535 5538 5540 5543 5546 5549 5551 5554 5557 5560 5563 5566 5570 5574 5578 5581 5585 5588 5592 5595 5599
5458 5460 5463 5469 5472 5473 5476 5479 5484 5486 5489 5492 5495 5498 5503 5505 5507 5509 5512 5514 5516 5519 5521 5524 5526 5529 5532 5535 5538 5540 5543 5545 5548 5551 5555 5558 5562 5566 5569 5572 5576 5579 5583 5586
5451 5453 5456 5460 5462 5465 5470 5472 5474 5476 5479 5482 5485 5488 5492 5494 5496 5499 5501 5504 5506 5508 5511 5513 5515 5518 5521 5524 5527 5529 5531 5534 5537 5540 5543 5546 5550 5553 5556 5559 5563 5567 5570 5573
5446 5448 5452 5453 5455 5458 5460 5462 5464 5467 5470 5473 5475 5478 5481 5484 5486 5488 5491 5493 5496 5499 5501 5503 5505 5507 5510 5513 5516 5518 5521 5523 5526 5529 5532 5535 5538 5541 5543 5546 5550 5553 5556 5559
5441 5444 5444 5446 5447 5450 5452 5454 5457 5459 5462 5464 5467 5470 5472 5474 5477 5479 5481 5483 5486 5488 5491 5494 5496 5498 5500 5503 5505 5508 5510 5513 5515 5518 5520 5523 5526 5529 5531 5534 5537 5540 5543 5545
5435 5437 5439 5440 5442 5443 5445 5447 5449 5451 5454 5456 5458 5461 5463 5465 5467 5469 5471 5473 5476 5478 5481 5484 5486 5488 5490 5493 5495 5498 5500 5502 5504 5507 5510 5512 5514 5516 5519 5521 5524 5526 5529 5531
5431 5432 5433 5435 5436 5437 5439 5440 5442 5444 5446 5448 5450 5453 5455 5457 5458 5460 5462 5464 5466 5468 5471 5474 5476 5479 5481 5483 5486 5488 5490 5493 5495 5497 5499 5501 5503 5505 5507 5509 5511 5513 5515 5517
5426 5427 5428 5429 5430 5431 5432 5433 5435 5437 5439 5440 5442 5444 5446 5448 5450 5451 5453 5455 5457 5459 5462 5464 5467 5470 5472 5474 5477 5479 5481 5484 5485 5487 5489 5490 5492 5494 5496 5498 5499 5501 5502 5504
5421 5422 5423 5423 5424 5425 5426 5427 5428 5430 5431 5433 5435 5437 5438 5440 5441 5443 5444 5446 5448 5450 5453 5455 5458 5461 5463 5466 5468 5470 5472 5474 5476 5477 5479 5481 5483 5484 5485 5487 5488 5489 5490 5491
5417 5418 5418 5419 5419 5420 5421 5421 5422 5424 5425 5426 5428 5429 5431 5432 5433 5435 5436 5438 5440 5442 5444 5447 5449 5452 5454 5457 5459 5461 5463 5465 5466 5468 5470 5471 5473 5474 5475 5477 5478 5478 5479 5479
5413 5413 5414 5414 5414 5415 5415 5416 5417 5418 5419 5420 5421 5422 5423 5425 5426 5427 5428 5430 5432 5434 5436 5438 5441 5443 5445 5448 5450 5452 5454 5455 5457 5459 5460 5461 5463 5464 5465 5466 5467 5468 5469 5469
5409 5409 5409 5410 5410 5410 5410 5411 5412 5413 5413 5414 5415 5416 5417 5418 5419 5420 5421 5422 5424 5426 5428 5430 5432 5435 5437 5439 5441 5443 5444 5446 5448 5449 5451 5452 5453 5454 5455 5456 5457 5458 5458 5458
5405 5405 5405 5405 5405 5405 5406 5406 5406 5407 5407 5408 5409 5409 5410 5411 5412 5413 5414 5415 5417 5418 5420 5422 5424 5426 5428 5430 5432 5434 5435 5437 5438 5439 5441 5442 5443 5444 5445 5446 5447 5448 5448 5448
5400 5399 5399 5399 5399 5400 5400 5400 5401 5401 5401 5402 5403 5403 5404 5404 5405 5406 5407 5408 5410 5411 5413 5414 5416 5418 5420 5421 5423 5424 5426 5427 5429 5430 5431 5432 5434 5435 5436 5436 5437 5437 5438 5437
5395 5395 5394 5394 5394 5394 5394 5394 5394 5394 5395 5395 5396 5396 5397 5397 5398 5399 5400 5401 5402 5404 5405 5406 5408 5409 5411 5412 5414 5415 5417 5418 5419 5420 5422 5423 5424 5425 5425 5426 5427 5427 5427 5427
5390 5389 5389 5388 5388 5388 5388 5387 5387 5388 5388 5388 5389 5389 5390 5390 5391 5392 5392 5393 5395 5396 5397 5398 5399 5401 5402 5404 5405 5406 5407 5408 5410 5411 5412 5413 5414 5415 5415 5415 5416 5416 5416 5416
5385 5384 5383 5382 5382 5381 5381 5381 5381 5381 5381 5381 5382 5382 5383 5383 5384 5384 5385 5386 5387 5388 5389 5390 5391 5392 5393 5394 5396 5397 5398 5399 5400 5401 5402 5403 5404 5404 5405 5405 5405 5405 5405 5404
5380 5379 5378 5377 5376 5375 5375 5374 5374 5374 5374 5374 5375 5375 5376 5376 5377 5377 5378 5379 5380 5380 5381 5382 5383 5384 5385 5385 5386 5388 5389 5390 5391 5391 5392 5393 5393 5394 5394 5394 5394 5394 5394 5393
5375 5374 5373 5372 5371 5370 5369 5368 5367 5367 5367 5367 5368 5368 5368 5369 5369 5370 5371 5371 5372 5373 5374 5374 5375 5376 5376 5377 5378 5379 5379 5380 5381 5382 5382 5383 5383 5384 5384 5383 5383 5383 5383 5383
5370 5369 5367 5366 5365 5364 5363 5362 5362 5361 5361 5361 5361 5361 5362 5362 5363 5363 5364 5364 5365 5365 5366 5367 5367 5368 5368 5369 5370 5370 5371 5371 5372 5372 5373 5373 5373 5373 5374 5373 5373 5373 5373 5373
5364 5363 5362 5361 5360 5359 5358 5357 5356 5356 5355 5355 5355 5355 5355 5355 5356 5356 5357 5357 5358 5358 5359 5359 5360 5360 5360 5361 5362 5362 5363 5363 5363 5364 5364 5364 5364 5364 5364 5364 5364 5363 5363 5363
5358 5357 5356 5355 5354 5353 5353 5352 5351 5351 5350 5350 5350 5350 5349 5349 5349 5350 5350 5350 5351 5351 5352 5352 5352 5353 5353 5353 5354 5354 5355 5355 5355 5356 5356 5356 5355 5355 5355 5355 5354 5354 5353 5353
5353 5352 5351 5350 5349 5348 5347 5347 5346 5346 5345 5345 5344 5344 5344 5344 5343 5343 5344 5344 5344 5344 5345 5345 5345 5346 5346 5346 5347 5347 5347 5347 5347 5347 5347 5347 5347 5346 5346 5346 5345 5345 5345 5344